Location: *
(46.1866°S, 178.5290°W)
Time: 15:15:04
(UTC+00:00)

CZ-4B R/B - Pass Details

Date: 24 September 2021
Orbit: 809 x 881 km, 99.1° (Epoch: 24 October)

Event Time Altitude Azimuth Distance (km) Brightness Sun altitude
Rises 15:57:46 0° 75° (ENE) 3,422 7.3 -17.8°
Reaches altitude 10° 16:01:30 10° 101° (E) 2,479 6.9 -17.2°
Maximum altitude 16:03:54 13° 127° (SE) 2,259 6.5 -16.8°
Drops below altitude 10° 16:06:18 10° 153° (SSE) 2,470 6.3 -16.4°
Sets 16:09:59 0° 179° (S) 3,398 6.6 -15.8°
